Randolph AFB, TX

1:07 PM CDT on March 29, 2017 (GMT -0500)
Randolph Air Force Base

Weather History for KRND - June, 2013

Change the Weather History Date:

Sunday, June 9, 2013

  Actual Average Record
Temperature  
Mean Temperature 81 °F -  
Max Temperature 89 °F 89 °F 100 °F (1998)
Min Temperature 73 °F 70 °F 65 °F (2012)
Cooling Degree Days 16    
Growing Degree Days 31 (Base 50)    
Moisture  
Dew Point 75 °F    
Average Humidity 90    
Maximum Humidity 100    
Minimum Humidity 59    
Precipitation  
Precipitation 0.00 in - - ()
Sea Level Pressure  
Sea Level Pressure 29.90 in    
Wind  
Wind Speed 4 mph (ESE)    
Max Wind Speed 9 mph    
Max Gust Speed -    
Visibility 10 miles    
Events Rain , Thunderstorm    
Averages and records for this station are not official NWS values.
T = Trace of Precipitation, MM = Missing Value Source: NWS Daily Summary

Daily Weather History Graph

Daily Weather History Graph

Search for Another Location

Airport or City:

Trip Planner

Search our weather history database for the weather conditions in past years. The results will help you decide how hot, cold, wet, or windy it might be!

Date:

Astronomy

Jun. 09, 2013 Rise Set
Actual Time 6:32 AM CDT 8:32 PM CDT
Civil Twilight 6:05 AM CDT 8:59 PM CDT
Nautical Twilight 5:32 AM CDT 9:32 PM CDT
Astronomical Twilight 4:57 AM CDT 10:07 PM CDT
Moon 7:26 AM CDT (6/9) 9:25 PM CDT (6/9)
Length of Visible Light 14h 54m
Length of Day
13h 59m
New Moon, 1% of the Moon is Illuminated
Jun 9
New Moon
Jun 16
First Quarter
Jun 23
Full
Jun 29
Last Quarter
Jul 8
New

Hourly Weather History & Observations

Time (CDT) Temp. Heat Index Dew Point Humidity Pressure Visibility Wind Dir Wind Speed Gust Speed Precip Events Conditions
12:58 AM 74.3 °F - 74.1 °F 99% 29.84 in 10.0 mi SE 4.6 mph - N/A   Clear
1:58 AM 74.8 °F - 74.5 °F 99% 29.84 in 10.0 mi SE 8.1 mph - N/A   Clear
2:58 AM 75.0 °F - 74.7 °F 99% 29.84 in 10.0 mi SE 8.1 mph - N/A   Partly Cloudy
3:58 AM 74.3 °F - 73.9 °F 99% 29.84 in 10.0 mi SSE 6.9 mph - N/A   Clear
4:52 AM 73.4 °F - 73.4 °F 100% 29.88 in 10.0 mi SSE 5.8 mph - N/A   Mostly Cloudy
4:58 AM 74.1 °F - 73.8 °F 99% 29.86 in 10.0 mi SSE 4.6 mph - N/A   Mostly Cloudy
5:07 AM 75.2 °F - 73.4 °F 94% 29.88 in 10.0 mi SSE 5.8 mph - N/A   Mostly Cloudy
5:34 AM 75.2 °F - 73.4 °F 94% 29.88 in 10.0 mi SSE 4.6 mph - N/A   Mostly Cloudy
5:58 AM 73.8 °F - 73.8 °F 100% 29.85 in 10.0 mi SE 5.8 mph - N/A   Mostly Cloudy
6:25 AM 73.4 °F - 73.4 °F 100% 29.88 in 10.0 mi SSE 3.5 mph - N/A   Overcast
6:41 AM 73.4 °F - 73.4 °F 100% 29.89 in 10.0 mi SSE 1.2 mph - N/A Rain Light Rain
6:58 AM 74.3 °F - 74.3 °F 100% 29.88 in 10.0 mi Calm Calm - 0.00 in Rain Light Rain
7:07 AM 75.2 °F - 75.2 °F 100% 29.91 in 10.0 mi Calm Calm - N/A Rain Light Rain
7:08 AM 75.2 °F - 75.2 °F 100% 29.91 in 10.0 mi Calm Calm - N/A   Mostly Cloudy
7:10 AM 75.2 °F - 75.2 °F 100% 29.91 in 10.0 mi Calm Calm - N/A Rain Light Rain
7:20 AM 75.2 °F - 75.2 °F 100% 29.91 in 10.0 mi Calm Calm - N/A Rain Light Rain
7:22 AM 75.2 °F - 75.2 °F 100% 29.91 in 10.0 mi Calm Calm - N/A   Mostly Cloudy
7:31 AM 75.2 °F - 75.2 °F 100% 29.92 in 10.0 mi Calm Calm - N/A   Mostly Cloudy
7:58 AM 75.0 °F - 75.0 °F 100% 29.89 in 10.0 mi East 2.3 mph - 0.00 in   Mostly Cloudy
8:07 AM 75.2 °F - 75.2 °F 100% 29.92 in 10.0 mi NNE 1.2 mph - N/A   Mostly Cloudy
8:34 AM 77.0 °F - 77.0 °F 100% 29.94 in 10.0 mi North 1.2 mph - N/A   Mostly Cloudy
8:43 AM 77.0 °F - 77.0 °F 100% 29.94 in 10.0 mi NNW 3.5 mph - N/A   Overcast
8:56 AM 78.8 °F - 77.0 °F 94% 29.95 in 2.5 mi Variable 2.3 mph - N/A   Mostly Cloudy
8:58 AM 78.8 °F - 77.0 °F 94% 29.93 in 2.5 mi NNW 2.3 mph - N/A   Mostly Cloudy
9:07 AM 78.8 °F - 77.0 °F 94% 29.95 in 2.5 mi Variable 2.3 mph - N/A   Mostly Cloudy
9:16 AM 78.8 °F - 77.0 °F 94% 29.95 in 10.0 mi Calm Calm - N/A   Overcast
9:25 AM 78.8 °F - 75.2 °F 89% 29.95 in 10.0 mi Variable 1.2 mph - N/A   Mostly Cloudy
9:34 AM 80.6 °F 86.2 °F 75.2 °F 84% 29.94 in 10.0 mi Variable 1.2 mph - N/A   Scattered Clouds
9:52 AM 80.6 °F 87.1 °F 77.0 °F 89% 29.94 in 10.0 mi SW 8.1 mph - N/A   Light Drizzle
9:58 AM 80.6 °F 87.1 °F 77.0 °F 89% 29.91 in 10.0 mi WSW 6.9 mph - 0.00 in   Light Drizzle
10:07 AM 80.6 °F 86.2 °F 75.2 °F 84% 29.94 in 10.0 mi West 4.6 mph - N/A   Light Drizzle
10:16 AM 78.8 °F - 75.2 °F 89% 29.93 in 10.0 mi West 8.1 mph - N/A   Light Drizzle
10:19 AM 80.6 °F 87.1 °F 77.0 °F 89% 29.94 in 10.0 mi WNW 8.1 mph - N/A Thunderstorm Partly Cloudy
10:53 AM 78.8 °F - 75.2 °F 89% 29.93 in 10.0 mi North 3.5 mph - N/A   Light Drizzle
10:58 AM 79.5 °F - 76.1 °F 89% 29.91 in 10.0 mi NNE 1.2 mph - 0.00 in   Light Drizzle
11:03 AM 78.8 °F - 75.2 °F 89% 29.94 in 10.0 mi NW 3.5 mph - N/A   Scattered Clouds
11:12 AM 78.8 °F - 75.2 °F 89% 29.94 in 10.0 mi North 4.6 mph - N/A   Mostly Cloudy
11:21 AM 78.8 °F - 75.2 °F 89% 29.93 in 10.0 mi North 1.2 mph - N/A   Scattered Clouds
11:58 AM 80.1 °F 85.5 °F 76.3 °F 88% 29.90 in 10.0 mi NE 5.8 mph - 0.00 in   Partly Cloudy
12:58 PM 82.6 °F 90.8 °F 76.5 °F 82% 29.89 in 10.0 mi East 3.5 mph - N/A   Mostly Cloudy
1:58 PM 85.5 °F 95.4 °F 76.5 °F 74% 29.88 in 10.0 mi ESE 5.8 mph - N/A   Mostly Cloudy
2:58 PM 88.0 °F 97.5 °F 74.8 °F 65% 29.85 in 10.0 mi SSE 9.2 mph - N/A   Partly Cloudy
3:58 PM 88.3 °F 96.9 °F 73.8 °F 62% 29.87 in 10.0 mi ESE 5.8 mph - N/A   Partly Cloudy
4:58 PM 89.4 °F 97.8 °F 73.6 °F 59% 29.86 in 10.0 mi ESE 5.8 mph - N/A   Clear
5:58 PM 86.2 °F 93.4 °F 73.2 °F 65% 29.86 in 10.0 mi ENE 6.9 mph - N/A   Partly Cloudy
6:58 PM 80.1 °F 81.9 °F 64.9 °F 60% 29.86 in 10.0 mi East 6.9 mph - N/A   Partly Cloudy
7:58 PM 79.0 °F - 69.8 °F 73% 29.86 in 10.0 mi SSE 3.5 mph - N/A   Clear
8:58 PM 76.3 °F - 69.3 °F 79% 29.90 in 10.0 mi NE 2.3 mph - N/A   Mostly Cloudy
9:58 PM 75.0 °F - 69.4 °F 83% 29.92 in 10.0 mi ENE 3.5 mph - N/A   Clear
10:58 PM 73.4 °F - 72.0 °F 95% 29.94 in 10.0 mi ESE 3.5 mph - N/A   Clear
11:58 PM 73.8 °F - 73.2 °F 98% 29.95 in 6.0 mi SSE 3.5 mph - N/A   Clear